,,,PA_Meas_PMT16A,,PR_Meas_QMR101_102,,RH_Meas_QMH101,,SR_Meas_QMS101,,TA_Meas_QMH101,,GenWind,,GenWind,
date,time,status,PA,status,PR,status,RH,status,SR,status,TA,status,DirAvg,status,SpdAvg,
2010-03-05, 00:00:04,VALID,1009.68,VALID,0,VALID,90.5863,VALID,0.105969,VALID,24.5905,VALID,313,VALID,0.382031,
2010-03-05, 00:01:04,VALID,1009.64,VALID,0,VALID,90.6245,VALID,0.105969,VALID,24.5886,VALID,313,VALID,0,
2010-03-05, 00:02:04,VALID,1009.58,VALID,0,VALID,90.716,VALID,0.105969,VALID,24.5691,VALID,313,VALID,0.221875,
2010-03-05, 00:03:04,VALID,1009.56,VALID,0,VALID,90.7236,VALID,0,VALID,24.5496,VALID,335,VALID,0.247266,
2010-03-05, 00:04:04,VALID,1009.53,VALID,0,VALID,90.7236,VALID,0.105969,VALID,24.571,VALID,335,VALID,0.183594,
2010-03-05, 00:05:04,VALID,1009.55,VALID,0,VALID,90.7312,VALID,0.105969,VALID,24.5496,VALID,335,VALID,0.0214844,
2010-03-05, 00:06:04,VALID,1009.5,VALID,0,VALID,90.8304,VALID,0.105969,VALID,24.571,VALID,335,VALID,0,
2010-03-05, 00:07:04,VALID,1009.48,VALID,0,VALID,90.96,VALID,0.105969,VALID,24.5691,VALID,335,VALID,0.0832031,
2010-03-05, 00:08:04,VALID,1009.46,VALID,0,VALID,91.0667,VALID,0.105969,VALID,24.5691,VALID,246,VALID,0.315625,
2010-03-05, 00:09:04,VALID,1009.47,VALID,0,VALID,91.1125,VALID,0.105969,VALID,24.6099,VALID,309,VALID,0.548828,
2010-03-05, 00:10:04,VALID,1009.46,VALID,0,VALID,91.0973,VALID,0.105969,VALID,24.5886,VALID,311,VALID,0,
2010-03-05, 00:11:04,VALID,1009.48,VALID,0,VALID,90.9752,VALID,0,VALID,24.5886,VALID,317,VALID,0.283594,
2010-03-05, 00:12:04,VALID,1009.49,VALID,0,VALID,90.8456,VALID,0.105969,VALID,24.6081,VALID,332,VALID,0.221094,
2010-03-05, 00:13:04,VALID,1009.5,VALID,0,VALID,90.7312,VALID,0.105969,VALID,24.6276,VALID,354,VALID,0.365234,
2010-03-05, 00:14:04,VALID,1009.5,VALID,0,VALID,90.5863,VALID,0,VALID,24.6294,VALID,354,VALID,0.237109,
2010-03-05, 00:15:04,VALID,1009.52,VALID,0,VALID,90.5482,VALID,0,VALID,24.6489,VALID,352,VALID,0.330469,
2010-03-05, 00:16:04,VALID,1009.52,VALID,0,VALID,90.4796,VALID,0,VALID,24.6489,VALID,355,VALID,0.0683594,
2010-03-05, 00:17:04,VALID,1009.53,VALID,0,VALID,90.4109,VALID,0,VALID,24.6703,VALID,335,VALID,0.30625,
2010-03-05, 00:18:04,VALID,1009.53,VALID,0,VALID,90.327,VALID,0,VALID,24.6684,VALID,338,VALID,0.217969,
2010-03-05, 00:19:04,VALID,1009.54,VALID,0,VALID,90.1593,VALID,0,VALID,24.6879,VALID,3,VALID,0.449219,
2010-03-05, 00:20:04,VALID,1009.53,VALID,0,VALID,89.9763,VALID,0,VALID,24.7074,VALID,329,VALID,0.474219,
2010-03-05, 00:21:04,VALID,1009.53,VALID,0,VALID,89.9153,VALID,0,VALID,24.7464,VALID,335,VALID,0.538672,
2010-03-05, 00:22:04,VALID,1009.55,VALID,0,VALID,90.0144,VALID,0,VALID,24.7464,VALID,338,VALID,0.348828,
2010-03-05, 00:23:04,VALID,1009.54,VALID,0,VALID,89.8924,VALID,0,VALID,24.725,VALID,347,VALID,0.554688,
2010-03-05, 00:24:04,VALID,1009.57,VALID,0,VALID,89.8009,VALID,0,VALID,24.7854,VALID,334,VALID,0.316016,
2010-03-05, 00:25:04,VALID,1009.56,VALID,0,VALID,89.7932,VALID,0,VALID,24.7854,VALID,333,VALID,0.342578,
2010-03-05, 00:26:04,VALID,1009.57,VALID,0,VALID,89.7627,VALID,0,VALID,24.7659,VALID,357,VALID,0.392188,
2010-03-05, 00:27:04,VALID,1009.62,VALID,0,VALID,89.7246,VALID,0,VALID,24.8067,VALID,360,VALID,0.56875,
2010-03-05, 00:28:04,VALID,1009.59,VALID,0,VALID,89.4882,VALID,0,VALID,24.7854,VALID,6,VALID,0.229687,
2010-03-05, 00:29:04,VALID,1009.58,VALID,0,VALID,89.4043,VALID,0.105969,VALID,24.803,VALID,328,VALID,0.604297,
2010-03-05, 00:30:04,VALID,1009.55,VALID,0,VALID,89.3662,VALID,0.105969,VALID,24.803,VALID,327,VALID,0.0398437,
2010-03-05, 00:31:04,VALID,1009.57,VALID,0,VALID,89.2823,VALID,0.105969,VALID,24.803,VALID,354,VALID,0.391406,
2010-03-05, 00:32:04,VALID,1009.55,VALID,0,VALID,89.2594,VALID,0.105969,VALID,24.8225,VALID,345,VALID,0.401172,
2010-03-05, 00:33:04,VALID,1009.58,VALID,0,VALID,89.3128,VALID,0.105969,VALID,24.8225,VALID,347,VALID,0.300781,
2010-03-05, 00:34:04,VALID,1009.6,VALID,0,VALID,89.2137,VALID,0.105969,VALID,24.8225,VALID,360,VALID,0.663672,
2010-03-05, 00:35:04,VALID,1009.61,VALID,0,VALID,89.3433,VALID,0.105969,VALID,24.8225,VALID,349,VALID,0.664844,
2010-03-05, 00:36:04,VALID,1009.6,VALID,0,VALID,89.4882,VALID,0.105969,VALID,24.8633,VALID,22,VALID,0.506641,
2010-03-05, 00:37:04,VALID,1009.61,VALID,0,VALID,89.6865,VALID,0.105969,VALID,24.803,VALID,22,VALID,0,
2010-03-05, 00:38:04,VALID,1009.6,VALID,0,VALID,89.8924,VALID,0.105969,VALID,24.7835,VALID,22,VALID,0,
2010-03-05, 00:39:04,VALID,1009.62,VALID,0,VALID,89.961,VALID,0.105969,VALID,24.7445,VALID,21,VALID,0.0605469,
2010-03-05, 00:40:04,VALID,1009.63,VALID,0,VALID,90.144,VALID,0.105969,VALID,24.725,VALID,21,VALID,0,
2010-03-05, 00:41:04,VALID,1009.63,VALID,0,VALID,90.3576,VALID,0,VALID,24.7269,VALID,21,VALID,0,
2010-03-05, 00:42:04,VALID,1009.6,VALID,0,VALID,90.5101,VALID,0.105969,VALID,24.7269,VALID,21,VALID,0.229687,
2010-03-05, 00:43:04,VALID,1009.62,VALID,0,VALID,90.5253,VALID,0,VALID,24.686,VALID,21,VALID,0.0421875,
2010-03-05, 00:44:04,VALID,1009.65,VALID,0,VALID,90.4109,VALID,0.105969,VALID,24.6666,VALID,21,VALID,0.15625,
2010-03-05, 00:45:04,VALID,1009.68,VALID,0,VALID,90.2355,VALID,0.105969,VALID,24.6489,VALID,21,VALID,0,
2010-03-05, 00:46:04,VALID,1009.69,VALID,0,VALID,90.5329,VALID,0.105969,VALID,24.6276,VALID,21,VALID,0.0121094,
2010-03-05, 00:47:04,VALID,1009.71,VALID,0,VALID,90.6778,VALID,0.105969,VALID,24.6471,VALID,21,VALID,0,
2010-03-05, 00:48:04,VALID,1009.71,VALID,0,VALID,90.8304,VALID,0.105969,VALID,24.6276,VALID,21,VALID,0,
2010-03-05, 00:49:04,VALID,1009.73,VALID,0,VALID,90.7617,VALID,0.105969,VALID,24.6276,VALID,21,VALID,0.0183594,
2010-03-05, 00:50:04,VALID,1009.71,VALID,0,VALID,90.6168,VALID,0.105969,VALID,24.6081,VALID,333,VALID,0.681641,
2010-03-05, 00:51:04,VALID,1009.72,VALID,0,VALID,90.5101,VALID,0.105969,VALID,24.6081,VALID,315,VALID,0.717969,
2010-03-05, 00:52:04,VALID,1009.72,VALID,0,VALID,90.4414,VALID,0,VALID,24.6276,VALID,336,VALID,0.16875,
2010-03-05, 00:53:04,VALID,1009.73,VALID,0,VALID,90.4872,VALID,0.105969,VALID,24.6471,VALID,336,VALID,0.222656,
2010-03-05, 00:54:04,VALID,1009.72,VALID,0,VALID,90.4262,VALID,0.105969,VALID,24.6879,VALID,354,VALID,0.618359,
2010-03-05, 00:55:04,VALID,1009.73,VALID,0,VALID,90.3347,VALID,0.105969,VALID,24.6684,VALID,340,VALID,0.530078,
2010-03-05, 00:56:04,VALID,1009.72,VALID,0,VALID,90.4262,VALID,0.105969,VALID,24.6471,VALID,333,VALID,0.541406,
2010-03-05, 00:57:04,VALID,1009.7,VALID,0,VALID,90.5177,VALID,0.105969,VALID,24.6471,VALID,303,VALID,0.555078,
2010-03-05, 00:58:04,VALID,1009.73,VALID,0,VALID,90.4414,VALID,0,VALID,24.6489,VALID,331,VALID,0.569141,
2010-03-05, 00:59:04,VALID,1009.72,VALID,0,VALID,90.3728,VALID,0,VALID,24.6684,VALID,341,VALID,0.185937,
2010-03-05, 01:00:04,VALID,1009.74,VALID,0,VALID,90.3728,VALID,0,VALID,24.6471,VALID,334,VALID,0.567187,
2010-03-05, 01:01:04,VALID,1009.73,VALID,0,VALID,90.327,VALID,0,VALID,24.6471,VALID,348,VALID,0.276172,
2010-03-05, 01:02:04,VALID,1009.75,VALID,0,VALID,90.2889,VALID,0.105969,VALID,24.6471,VALID,359,VALID,0.465625,
2010-03-05, 01:03:04,VALID,1009.75,VALID,0,VALID,90.1517,VALID,0.105969,VALID,24.6879,VALID,355,VALID,0.237109,
2010-03-05, 01:04:04,VALID,1009.74,VALID,0,VALID,90.2432,VALID,0,VALID,24.6666,VALID,323,VALID,0.296875,
2010-03-05, 01:05:04,VALID,1009.76,VALID,0,VALID,90.3194,VALID,0.105969,VALID,24.686,VALID,320,VALID,0.588281,
2010-03-05, 01:06:04,VALID,1009.74,VALID,0,VALID,90.2813,VALID,0.105969,VALID,24.686,VALID,300,VALID,0.289063,
2010-03-05, 01:07:04,VALID,1009.7,VALID,0,VALID,90.1669,VALID,0.105969,VALID,24.7055,VALID,331,VALID,0.363281,
2010-03-05, 01:08:04,VALID,1009.7,VALID,0,VALID,90.022,VALID,0.105969,VALID,24.7269,VALID,311,VALID,0.255469,
2010-03-05, 01:09:04,VALID,1009.67,VALID,0,VALID,90.0373,VALID,0,VALID,24.7464,VALID,311,VALID,0.226953,
2010-03-05, 01:10:04,VALID,1009.68,VALID,0,VALID,90.0373,VALID,0.105969,VALID,24.7445,VALID,302,VALID,0.327344,
2010-03-05, 01:11:04,VALID,1009.6,VALID,0,VALID,89.8238,VALID,0.105969,VALID,24.7445,VALID,296,VALID,0.374609,
2010-03-05, 01:12:04,VALID,1009.62,VALID,0,VALID,89.7246,VALID,0,VALID,24.7835,VALID,314,VALID,0.545313,
2010-03-05, 01:13:04,VALID,1009.66,VALID,0,VALID,89.7475,VALID,0.105969,VALID,24.803,VALID,329,VALID,0.23125,
2010-03-05, 01:14:04,VALID,1009.66,VALID,0,VALID,89.6331,VALID,0,VALID,24.8049,VALID,338,VALID,0.730859,
2010-03-05, 01:15:04,VALID,1009.66,VALID,0,VALID,89.5721,VALID,0,VALID,24.7835,VALID,301,VALID,0.361328,
2010-03-05, 01:16:04,VALID,1009.68,VALID,0,VALID,89.6484,VALID,0.105969,VALID,24.8225,VALID,302,VALID,0.149609,
2010-03-05, 01:17:04,VALID,1009.69,VALID,0,VALID,89.534,VALID,0.105969,VALID,24.7835,VALID,357,VALID,0.562891,
2010-03-05, 01:18:04,VALID,1009.71,VALID,0,VALID,89.4882,VALID,0.105969,VALID,24.803,VALID,24,VALID,0.446484,
2010-03-05, 01:19:04,VALID,1009.69,VALID,0,VALID,89.5111,VALID,0.105969,VALID,24.8049,VALID,322,VALID,0.788281,
2010-03-05, 01:20:04,VALID,1009.69,VALID,0,VALID,89.6407,VALID,0.105969,VALID,24.764,VALID,7,VALID,0.675781,
2010-03-05, 01:21:04,VALID,1009.69,VALID,0,VALID,89.6865,VALID,0,VALID,24.7445,VALID,331,VALID,0.484766,
2010-03-05, 01:22:04,VALID,1009.68,VALID,0,VALID,89.5721,VALID,0,VALID,24.7445,VALID,342,VALID,0.489062,
2010-03-05, 01:23:04,VALID,1009.67,VALID,0,VALID,89.4958,VALID,0.105969,VALID,24.7445,VALID,3,VALID,0.421094,
2010-03-05, 01:24:04,VALID,1009.67,VALID,0,VALID,89.6865,VALID,0.105969,VALID,24.7659,VALID,53,VALID,0.522656,
2010-03-05, 01:25:04,VALID,1009.66,VALID,0,VALID,89.8924,VALID,0.105969,VALID,24.7445,VALID,42,VALID,0.341406,
2010-03-05, 01:26:04,VALID,1009.63,VALID,0,VALID,89.9458,VALID,0,VALID,24.725,VALID,4,VALID,0,
2010-03-05, 01:27:04,VALID,1009.64,VALID,0,VALID,90.1364,VALID,0.105969,VALID,24.7055,VALID,4,VALID,0,
2010-03-05, 01:28:04,VALID,1009.61,VALID,0,VALID,90.1669,VALID,0.105969,VALID,24.7055,VALID,38,VALID,0.209766,
2010-03-05, 01:29:04,VALID,1009.6,VALID,0,VALID,90.0144,VALID,0.105969,VALID,24.686,VALID,46,VALID,0.0917969,
2010-03-05, 01:30:04,VALID,1009.59,VALID,0,VALID,89.9534,VALID,0.105969,VALID,24.686,VALID,2,VALID,0.800391,
2010-03-05, 01:31:04,VALID,1009.57,VALID,0,VALID,89.9153,VALID,0.105969,VALID,24.686,VALID,355,VALID,0.179297,
2010-03-05, 01:32:04,VALID,1009.57,VALID,0,VALID,90.0144,VALID,0,VALID,24.686,VALID,359,VALID,0.0582031,
2010-03-05, 01:33:04,VALID,1009.56,VALID,0,VALID,90.0907,VALID,0.105969,VALID,24.6666,VALID,5,VALID,0.455469,
2010-03-05, 01:34:04,VALID,1009.55,VALID,0,VALID,89.8924,VALID,0.105969,VALID,24.6666,VALID,359,VALID,0.383203,
2010-03-05, 01:35:04,VALID,1009.56,VALID,0,VALID,90.1745,VALID,0.105969,VALID,24.686,VALID,344,VALID,0.186328,
2010-03-05, 01:36:04,VALID,1009.56,VALID,0,VALID,90.1517,VALID,0.105969,VALID,24.6666,VALID,344,VALID,0.453125,
2010-03-05, 01:37:04,VALID,1009.54,VALID,0,VALID,90.266,VALID,0,VALID,24.6471,VALID,12,VALID,0,
2010-03-05, 01:38:04,VALID,1009.54,VALID,0,VALID,90.4338,VALID,0.105969,VALID,24.6471,VALID,12,VALID,0,
2010-03-05, 01:39:04,VALID,1009.51,VALID,0,VALID,90.5329,VALID,0,VALID,24.6276,VALID,12,VALID,0,
2010-03-05, 01:40:04,VALID,1009.48,VALID,0,VALID,90.6702,VALID,0.105969,VALID,24.6081,VALID,12,VALID,0.324219,
2010-03-05, 01:41:04,VALID,1009.49,VALID,0,VALID,90.7617,VALID,0.105969,VALID,24.5691,VALID,12,VALID,0,
2010-03-05, 01:42:04,VALID,1009.48,VALID,0,VALID,90.9219,VALID,0,VALID,24.5691,VALID,12,VALID,0,
2010-03-05, 01:43:04,VALID,1009.42,VALID,0,VALID,90.9447,VALID,0,VALID,24.5496,VALID,12,VALID,0,
2010-03-05, 01:44:04,VALID,1009.44,VALID,0,VALID,91.0896,VALID,0,VALID,24.5515,VALID,12,VALID,0,
2010-03-05, 01:45:04,VALID,1009.4,VALID,0,VALID,91.3413,VALID,0.105969,VALID,24.571,VALID,12,VALID,0.287109,
2010-03-05, 01:46:04,VALID,1009.34,VALID,0,VALID,91.204,VALID,0.105969,VALID,24.4911,VALID,12,VALID,0,
2010-03-05, 01:47:04,VALID,1009.33,VALID,0,VALID,91.143,VALID,0,VALID,24.4911,VALID,12,VALID,0.025,
2010-03-05, 01:48:04,VALID,1009.27,VALID,0,VALID,91.3031,VALID,0.105969,VALID,24.4717,VALID,12,VALID,0.183203,
2010-03-05, 01:49:04,VALID,1009.29,VALID,0,VALID,91.2498,VALID,0.105969,VALID,24.4735,VALID,12,VALID,0,
2010-03-05, 01:50:04,VALID,1009.28,VALID,0,VALID,91.4862,VALID,0,VALID,24.4327,VALID,12,VALID,0.370313,
2010-03-05, 01:51:04,VALID,1009.28,VALID,0,VALID,91.5014,VALID,0.105969,VALID,24.3937,VALID,12,VALID,0.300781,
2010-03-05, 01:52:04,VALID,1009.28,VALID,0,VALID,91.6234,VALID,0.105969,VALID,24.3937,VALID,12,VALID,0.154297,
2010-03-05, 01:53:04,VALID,1009.3,VALID,0,VALID,91.7683,VALID,0.105969,VALID,24.3937,VALID,12,VALID,0,
2010-03-05, 01:54:04,VALID,1009.28,VALID,0,VALID,91.8522,VALID,0.105969,VALID,24.3742,VALID,12,VALID,0,
2010-03-05, 01:55:04,VALID,1009.27,VALID,0,VALID,91.9513,VALID,0.105969,VALID,24.3937,VALID,12,VALID,0.0328125,
2010-03-05, 01:56:04,VALID,1009.24,VALID,0,VALID,91.9208,VALID,0,VALID,24.3742,VALID,12,VALID,0.142188,
2010-03-05, 01:57:04,VALID,1009.23,VALID,0,VALID,91.7912,VALID,0,VALID,24.3547,VALID,14,VALID,0.320703,
2010-03-05, 01:58:04,VALID,1009.2,VALID,0,VALID,91.7378,VALID,0.105969,VALID,24.3742,VALID,29,VALID,0.449219,
2010-03-05, 01:59:04,VALID,1009.21,VALID,0,VALID,91.6158,VALID,0.105969,VALID,24.3937,VALID,29,VALID,0.199609,
2010-03-05, 02:00:04,VALID,1009.19,VALID,0,VALID,91.5777,VALID,0.105969,VALID,24.3937,VALID,70,VALID,0.498437,
2010-03-05, 02:01:04,VALID,1009.17,VALID,0,VALID,91.5548,VALID,0,VALID,24.3937,VALID,70,VALID,0.316406,
2010-03-05, 02:02:04,VALID,1009.23,VALID,0,VALID,91.5395,VALID,0,VALID,24.4345,VALID,70,VALID,0.270312,
2010-03-05, 02:03:04,VALID,1009.22,VALID,0,VALID,91.6005,VALID,0.105969,VALID,24.4327,VALID,70,VALID,0.283203,
2010-03-05, 02:04:04,VALID,1009.21,VALID,0,VALID,91.6692,VALID,0.105969,VALID,24.4735,VALID,70,VALID,0.200391,
2010-03-05, 02:05:04,VALID,1009.2,VALID,0,VALID,91.6539,VALID,0.105969,VALID,24.4327,VALID,59,VALID,0.25,
2010-03-05, 02:06:04,VALID,1009.18,VALID,0,VALID,91.5929,VALID,0.105969,VALID,24.4132,VALID,59,VALID,0.164453,
2010-03-05, 02:07:04,VALID,1009.19,VALID,0,VALID,91.6082,VALID,0.105969,VALID,24.4132,VALID,59,VALID,0,
2010-03-05, 02:08:04,VALID,1009.2,VALID,0,VALID,91.6082,VALID,0,VALID,24.4132,VALID,59,VALID,0.3,
2010-03-05, 02:09:04,VALID,1009.18,VALID,0,VALID,91.6539,VALID,0.105969,VALID,24.415,VALID,59,VALID,0.352344,
2010-03-05, 02:10:04,VALID,1009.16,VALID,0,VALID,91.5777,VALID,0,VALID,24.3937,VALID,59,VALID,0.213281,
2010-03-05, 02:11:04,VALID,1009.14,VALID,0,VALID,91.5929,VALID,0,VALID,24.3956,VALID,59,VALID,0.267969,
2010-03-05, 02:12:04,VALID,1009.12,VALID,0,VALID,91.6005,VALID,0,VALID,24.3956,VALID,59,VALID,0.141797,
2010-03-05, 02:13:04,VALID,1009.11,VALID,0,VALID,91.6844,VALID,0,VALID,24.3742,VALID,59,VALID,0,
2010-03-05, 02:14:04,VALID,1009.1,VALID,0,VALID,91.6921,VALID,0,VALID,24.3547,VALID,59,VALID,0,
2010-03-05, 02:15:04,VALID,1009.08,VALID,0,VALID,91.7531,VALID,0,VALID,24.3761,VALID,59,VALID,0,
2010-03-05, 02:16:04,VALID,1009.09,VALID,0,VALID,91.7683,VALID,0.105969,VALID,24.3761,VALID,59,VALID,0,
2010-03-05, 02:17:04,VALID,1009.09,VALID,0,VALID,91.8064,VALID,0,VALID,24.3547,VALID,59,VALID,0,
2010-03-05, 02:18:04,VALID,1009.07,VALID,0,VALID,91.8522,VALID,0,VALID,24.3547,VALID,59,VALID,0,
2010-03-05, 02:19:04,VALID,1009.05,VALID,0,VALID,91.8598,VALID,0.105969,VALID,24.3352,VALID,59,VALID,0,
2010-03-05, 02:20:04,VALID,1009.03,VALID,0,VALID,91.8064,VALID,0.105969,VALID,24.3352,VALID,59,VALID,0,
2010-03-05, 02:21:04,VALID,1009.04,VALID,0,VALID,91.9666,VALID,0.105969,VALID,24.3761,VALID,59,VALID,0,
2010-03-05, 02:22:04,VALID,1009.03,VALID,0,VALID,91.9666,VALID,0,VALID,24.3352,VALID,59,VALID,0,
2010-03-05, 02:23:04,VALID,1009,VALID,0,VALID,92.0123,VALID,0.105969,VALID,24.3352,VALID,59,VALID,0,
2010-03-05, 02:24:04,VALID,1009.03,VALID,0,VALID,92.0352,VALID,0,VALID,24.3566,VALID,59,VALID,0,
2010-03-05, 02:25:04,VALID,1008.99,VALID,0,VALID,92.0733,VALID,0.105969,VALID,24.3566,VALID,59,VALID,0,
2010-03-05, 02:26:04,VALID,1009.01,VALID,0,VALID,92.0886,VALID,0,VALID,24.3371,VALID,59,VALID,0.0304688,
2010-03-05, 02:27:04,VALID,1008.96,VALID,0,VALID,92.0428,VALID,0,VALID,24.3158,VALID,59,VALID,0,
2010-03-05, 02:28:04,VALID,1008.95,VALID,0,VALID,92.0505,VALID,0,VALID,24.3566,VALID,59,VALID,0,
2010-03-05, 02:29:04,VALID,1008.95,VALID,0,VALID,92.081,VALID,0.105969,VALID,24.3371,VALID,59,VALID,0,
2010-03-05, 02:30:04,VALID,1008.98,VALID,0,VALID,92.0962,VALID,0,VALID,24.3158,VALID,59,VALID,0,
2010-03-05, 02:31:04,VALID,1008.95,VALID,0,VALID,92.1496,VALID,0.105969,VALID,24.3352,VALID,59,VALID,0,
2010-03-05, 02:32:04,VALID,1008.93,VALID,0,VALID,92.2487,VALID,0,VALID,24.3371,VALID,59,VALID,0,
2010-03-05, 02:33:04,VALID,1008.94,VALID,0,VALID,92.1877,VALID,0.105969,VALID,24.2963,VALID,59,VALID,0,
2010-03-05, 02:34:04,VALID,1008.93,VALID,0,VALID,92.2716,VALID,0,VALID,24.2981,VALID,59,VALID,0,
2010-03-05, 02:35:04,VALID,1008.95,VALID,0,VALID,92.386,VALID,0,VALID,24.2786,VALID,59,VALID,0,
2010-03-05, 02:36:04,VALID,1008.95,VALID,0,VALID,92.5614,VALID,0,VALID,24.2786,VALID,59,VALID,0,
2010-03-05, 02:37:04,VALID,1008.96,VALID,0,VALID,92.5919,VALID,0.105969,VALID,24.2786,VALID,59,VALID,0,
2010-03-05, 02:38:04,VALID,1008.96,VALID,0,VALID,92.5538,VALID,0.105969,VALID,24.2378,VALID,59,VALID,0,
2010-03-05, 02:39:04,VALID,1008.95,VALID,0,VALID,92.4928,VALID,0.105969,VALID,24.2591,VALID,58,VALID,0.453906,
2010-03-05, 02:40:04,VALID,1008.96,VALID,0,VALID,92.4165,VALID,0.105969,VALID,24.2591,VALID,58,VALID,0.296094,
2010-03-05, 02:41:04,VALID,1008.96,VALID,0,VALID,92.3479,VALID,0,VALID,24.2591,VALID,56,VALID,0.445313,
2010-03-05, 02:42:04,VALID,1008.95,VALID,0,VALID,92.2792,VALID,0,VALID,24.2573,VALID,56,VALID,0.467969,
2010-03-05, 02:43:04,VALID,1008.95,VALID,0,VALID,92.2487,VALID,0,VALID,24.2573,VALID,56,VALID,0.287109,
2010-03-05, 02:44:04,VALID,1008.94,VALID,0,VALID,92.2869,VALID,0,VALID,24.2786,VALID,56,VALID,0.294922,
2010-03-05, 02:45:04,VALID,1008.95,VALID,0,VALID,92.2869,VALID,0,VALID,24.2786,VALID,56,VALID,0.226172,
2010-03-05, 02:46:04,VALID,1008.98,VALID,0,VALID,92.2792,VALID,0,VALID,24.2786,VALID,56,VALID,0.234766,
2010-03-05, 02:47:04,VALID,1008.98,VALID,0,VALID,92.3021,VALID,0.105969,VALID,24.2591,VALID,59,VALID,0.389453,
2010-03-05, 02:48:04,VALID,1009.01,VALID,0,VALID,92.325,VALID,0.105969,VALID,24.2183,VALID,59,VALID,0.474219,
2010-03-05, 02:49:04,VALID,1009.02,VALID,0,VALID,92.3402,VALID,0.105969,VALID,24.2202,VALID,80,VALID,0.727344,
2010-03-05, 02:50:04,VALID,1009.03,VALID,0,VALID,92.3479,VALID,0.105969,VALID,24.2202,VALID,77,VALID,0.874219,
2010-03-05, 02:51:04,VALID,1009.06,VALID,0,VALID,92.1877,VALID,0,VALID,24.1988,VALID,85,VALID,0.682031,
2010-03-05, 02:52:04,VALID,1009.07,VALID,0,VALID,92.2487,VALID,0.105969,VALID,24.1988,VALID,76,VALID,0.704297,
2010-03-05, 02:53:04,VALID,1009.08,VALID,0,VALID,92.2716,VALID,0,VALID,24.2202,VALID,78,VALID,0.633594,
2010-03-05, 02:54:04,VALID,1009.05,VALID,0,VALID,92.2564,VALID,0.105969,VALID,24.2202,VALID,95,VALID,0.702734,
2010-03-05, 02:55:04,VALID,1009.07,VALID,0,VALID,92.2792,VALID,0,VALID,24.2202,VALID,86,VALID,0.353125,
2010-03-05, 02:56:04,VALID,1009.06,VALID,0,VALID,92.3097,VALID,0,VALID,24.2007,VALID,72,VALID,0.637109,
2010-03-05, 02:57:04,VALID,1009.06,VALID,0,VALID,92.2945,VALID,0,VALID,24.2007,VALID,71,VALID,0.656641,
2010-03-05, 02:58:04,VALID,1009.06,VALID,0,VALID,92.2869,VALID,0,VALID,24.1812,VALID,71,VALID,0.332812,
2010-03-05, 02:59:04,VALID,1009.06,VALID,0,VALID,92.3174,VALID,0,VALID,24.1793,VALID,71,VALID,0.285937,
2010-03-05, 03:00:04,VALID,1009.03,VALID,0,VALID,92.2945,VALID,0,VALID,24.1812,VALID,67,VALID,0.172266,
2010-03-05, 03:01:04,VALID,1009.03,VALID,0,VALID,92.325,VALID,0,VALID,24.1617,VALID,67,VALID,0.0410156,
2010-03-05, 03:02:04,VALID,1009,VALID,0,VALID,92.3555,VALID,0,VALID,24.1617,VALID,67,VALID,0,
2010-03-05, 03:03:04,VALID,1009,VALID,0,VALID,92.3936,VALID,0,VALID,24.1617,VALID,67,VALID,0.314063,
2010-03-05, 03:04:04,VALID,1009.01,VALID,0,VALID,92.4013,VALID,0,VALID,24.1422,VALID,82,VALID,0.370313,
2010-03-05, 03:05:04,VALID,1008.99,VALID,0,VALID,92.5004,VALID,0.105969,VALID,24.1209,VALID,82,VALID,0.1375,
2010-03-05, 03:06:04,VALID,1008.98,VALID,0,VALID,92.508,VALID,0,VALID,24.1422,VALID,84,VALID,0.628516,
2010-03-05, 03:07:04,VALID,1008.97,VALID,0,VALID,92.5766,VALID,0,VALID,24.1422,VALID,70,VALID,0,
2010-03-05, 03:08:04,VALID,1008.93,VALID,0,VALID,92.6148,VALID,0,VALID,24.1422,VALID,56,VALID,0.223438,
2010-03-05, 03:09:04,VALID,1008.93,VALID,0,VALID,92.6529,VALID,0,VALID,24.1227,VALID,52,VALID,0.132031,
2010-03-05, 03:10:04,VALID,1008.91,VALID,0,VALID,92.6605,VALID,0,VALID,24.1014,VALID,52,VALID,0,
2010-03-05, 03:11:04,VALID,1008.89,VALID,0,VALID,92.6682,VALID,0,VALID,24.1227,VALID,52,VALID,0.104297,
2010-03-05, 03:12:04,VALID,1008.88,VALID,0,VALID,92.6987,VALID,0,VALID,24.1032,VALID,347,VALID,0.257031,
2010-03-05, 03:13:04,VALID,1008.89,VALID,0,VALID,92.6682,VALID,0,VALID,24.1032,VALID,286,VALID,0.177344,
2010-03-05, 03:14:04,VALID,1008.87,VALID,0,VALID,92.6834,VALID,0.105969,VALID,24.0819,VALID,286,VALID,0.0121094,
2010-03-05, 03:15:04,VALID,1008.89,VALID,0,VALID,92.6453,VALID,0,VALID,24.1032,VALID,286,VALID,0,
2010-03-05, 03:16:04,VALID,1008.91,VALID,0,VALID,92.6682,VALID,0.105969,VALID,24.0819,VALID,286,VALID,0,
2010-03-05, 03:17:04,VALID,1008.95,VALID,0,VALID,92.7292,VALID,0,VALID,24.1032,VALID,286,VALID,0,
2010-03-05, 03:18:04,VALID,1008.98,VALID,0,VALID,92.813,VALID,0.105969,VALID,24.0819,VALID,286,VALID,0,
2010-03-05, 03:19:04,VALID,1008.99,VALID,0,VALID,92.8512,VALID,0,VALID,24.0837,VALID,286,VALID,0,
2010-03-05, 03:20:04,VALID,1009.02,VALID,0,VALID,92.9274,VALID,0,VALID,24.0624,VALID,85,VALID,0,
2010-03-05, 03:21:04,VALID,1009.01,VALID,0,VALID,93.0571,VALID,0,VALID,24.0643,VALID,85,VALID,0,
2010-03-05, 03:22:04,VALID,1009.01,VALID,0,VALID,93.0494,VALID,0,VALID,24.0448,VALID,85,VALID,0,
2010-03-05, 03:23:04,VALID,1009.04,VALID,0,VALID,93.0571,VALID,0,VALID,24.0253,VALID,85,VALID,0,
2010-03-05, 03:24:04,VALID,1009.03,VALID,0,VALID,93.0723,VALID,0,VALID,24.0253,VALID,85,VALID,0,
2010-03-05, 03:25:04,VALID,1009.03,VALID,0,VALID,93.1333,VALID,0,VALID,24.0058,VALID,85,VALID,0,
2010-03-05, 03:26:04,VALID,1009.01,VALID,0,VALID,93.1562,VALID,0.105969,VALID,24.0058,VALID,341,VALID,0,
2010-03-05, 03:27:04,VALID,1009.01,VALID,0,VALID,93.1562,VALID,0,VALID,24.0058,VALID,335,VALID,0,
2010-03-05, 03:28:04,VALID,1008.99,VALID,0,VALID,93.1943,VALID,0,VALID,24.0058,VALID,334,VALID,0,
2010-03-05, 03:29:04,VALID,1009,VALID,0,VALID,93.202,VALID,0,VALID,24.0058,VALID,334,VALID,0,
2010-03-05, 03:30:04,VALID,1009,VALID,0,VALID,93.1943,VALID,0,VALID,24.0253,VALID,334,VALID,0,
2010-03-05, 03:31:04,VALID,1009.01,VALID,0,VALID,93.1943,VALID,0,VALID,24.0253,VALID,334,VALID,0,
2010-03-05, 03:32:04,VALID,1009.02,VALID,0,VALID,93.1715,VALID,0,VALID,24.004,VALID,334,VALID,0,
2010-03-05, 03:33:04,VALID,1009.03,VALID,0,VALID,93.202,VALID,0.105969,VALID,24.0253,VALID,334,VALID,0,
2010-03-05, 03:34:04,VALID,1009.04,VALID,0,VALID,93.1638,VALID,0,VALID,24.0235,VALID,334,VALID,0,
2010-03-05, 03:35:04,VALID,1009.05,VALID,0,VALID,93.1715,VALID,0.105969,VALID,24.004,VALID,334,VALID,0,
2010-03-05, 03:36:04,VALID,1009.06,VALID,0,VALID,93.1867,VALID,0,VALID,24.0448,VALID,334,VALID,0,
2010-03-05, 03:37:04,VALID,1009.08,VALID,0,VALID,93.1867,VALID,0,VALID,24.0235,VALID,334,VALID,0,
2010-03-05, 03:38:04,VALID,1009.07,VALID,0,VALID,93.1715,VALID,0.105969,VALID,23.9845,VALID,334,VALID,0,
2010-03-05, 03:39:04,VALID,1009.1,VALID,0,VALID,93.1638,VALID,0,VALID,24.004,VALID,334,VALID,0,
2010-03-05, 03:40:04,VALID,1009.12,VALID,0,VALID,93.141,VALID,0,VALID,24.0253,VALID,334,VALID,0,
2010-03-05, 03:41:04,VALID,1009.12,VALID,0,VALID,93.141,VALID,0,VALID,24.0253,VALID,334,VALID,0,
2010-03-05, 03:42:04,VALID,1009.13,VALID,0,VALID,93.141,VALID,0,VALID,24.0058,VALID,334,VALID,0,
2010-03-05, 03:43:04,VALID,1009.14,VALID,0,VALID,93.1181,VALID,0.105969,VALID,23.965,VALID,334,VALID,0,